STARLINK-32637, 62032

Orbit data source: Space-Track

STARLINK-32637, 62032 is a payload satellite owned by SpaceX/Seattle (US) in LEO that was launched on Thu, 21 Nov 2024 UTC via an FALCON 9 launch vehicle from the Air Force Eastern Test Range (AFETR). Payloads include a variety of satellites, spacecraft, and rockets equipped with specific instruments for various scientific and technological missions. These include communications satellites like Starlink; space stations such as the ISS; scientific satellites like the Hubble; Earth observation satellites from companies like Planet Labs, Umbra, and HawkEye 360; GPS; miniature CubeSats for education and research; and military/defense satellites.

Loading next visibility...
STARLINK-32637 details
Identifier
62032, 2024-216A
Orbit
LEO
Last TLE update11 hours ago
Origin
Flag of USSpaceX/Seattle (US)
ManufacturerSpaceX/Seattle
MissionOperational spacecraft
Bus & MotorSTARLINK V2M, Unknown motor
Mass730 kg wet, ~700 kg dry
Launch date (UTC)
2024-11-21 (3 weeks ago)
Launch vehicle
FALCON 9
Launch site
Air Force Eastern Test Range (AFETR)
Object type
Payload
Rocket body
Debris
Shape & HBRUnknown
Radar Cross SectionLarge (>1 m²)

Expand to show TLE details & history

TLE from 11 hours ago
0 STARLINK-32637
1 62032U 24216A   24348.50002315 -.00002900  00000-0 -43617-4 0  9993
2 62032  42.9997 307.4267 0001362 272.9294 177.3176 15.50585312  4529
Epoch: 2024-12-13T12:00Z
Definitive object data (Epoch: 2024-12-13T12:00:02Z)
Latitude43.15889°
Longitude135.09232°
Altitude419.075 km
Speed7.665 km/s
True Right ascension02h 31m 03s
True Declination42° 58' 44"
Sunlit
Object was in full shadow at TLE epoch
Visualization TLE readout
Latitude37.68979°
Longitude97.62124°
Altitude417.776 km
Speed7.666 km/s
Apparent Right ascension04h 09m 30s
Apparent Declination0° 58' 33"
Sunlit
Object is in full shadow
Visualization observer readout
Local Sidereal Time21:14:20
Azimuth80.299° E
Elevation-9.897°
Doppler factor1
Orbital elements
Apogee altitude417.906 km
Perigee altitude416.055 km
Semi-major axis6,795.118 km
Eccentricity0.0001362
Inclination42.9997°
RAAN307.4267°
Arg. of periapsis272.9294°
True anomaly177.31833°
Mean anomaly177.3176°
Eccentric anomaly177.31797°
Mean motion3.87479 °/min
BSTAR-0.000043617
Orbital period92.91 mins
Loading maneuver chart data...
Loading historical data...
Loading historical data...
Loading historical data...
Loading historical data...
Loading historical data...
Loading historical data...
Loading historical data...

STARLINK-32637 Visibility forecast

Observer location: undefined°, undefined

Span
Click to sort rows by Start time (UTC) header in descending order
Start Az.
Max El. time (UTC)
Max El. Az.
Max El.
End time (UTC)
End Az.
4 mins2024-12-14 00:10:23.602Z180.825° SSW2024-12-14 00:12:23.602Z139.116° SSE16.46°2024-12-14 00:14:23.602Z101.881° ESE
5 mins2024-12-14 01:47:23.602Z245.293° WSW2024-12-14 01:49:23.602Z110.054° ESE44.255°2024-12-14 01:52:23.602Z72.97° E
4 mins2024-12-14 03:25:23.602Z297.886° NW2024-12-14 03:26:23.602Z331.853° NNW35.187°2024-12-14 03:29:23.602Z70.092° E
5 mins2024-12-14 05:02:23.602Z293.167° NW2024-12-14 05:04:23.602Z8.006° NNE43.52°2024-12-14 05:07:23.602Z99.56° ESE
4 mins2024-12-14 06:40:23.602Z249.491° W2024-12-14 06:41:23.602Z220.93° SW24.907°2024-12-14 06:44:23.602Z151.648° SSE
|